• în România
  • Lista ţărilor
  • Pe 7 zile
  • Temperatura apei
  • Hartă satelitară
  • Meteo pe hartă
  • Widget-uri
  • user-avatar
    Intrare

    Meteo pe oră la Punevo

    Astăzi, 21 Aprilie, Sâmbătă

    Timp Temperatura Precipitaţii Vânt Presiune Umiditate
    00:00 +10°C° 0 mm 3 m/s 742 mmHg 79%
    01:00 +10°C° 0 mm 3 m/s 741 mmHg 84%
    02:00 +10°C° 0 mm 4 m/s 740 mmHg 89%
    03:00 +8°C° 0 mm 4 m/s 739 mmHg 90%
    04:00 +8°C° 0 mm 4 m/s 739 mmHg 91%
    05:00 +8°C° 0 mm 4 m/s 738 mmHg 91%
    06:00 +10°C° 0 mm 4 m/s 737 mmHg 85%
    07:00 +10°C° 0 mm 5 m/s 736 mmHg 79%
    08:00 +13°C° 0 mm 5 m/s 735 mmHg 73%
    09:00 +14°C° 0 mm 6 m/s 734 mmHg 70%
    10:00 +15°C° 0 mm 6 m/s 733 mmHg 66%
    11:00 +17°C° 0 mm 6 m/s 732 mmHg 63%
    12:00 +17°C° 0,5 mm 7 m/s 731 mmHg 61%
    13:00 +17°C° 0,5 mm 8 m/s 731 mmHg 58%
    14:00 +17°C° 0,5 mm 9 m/s 730 mmHg 56%
    15:00 +15°C° 0,1 mm 8 m/s 731 mmHg 56%
    16:00 +13°C° 0,1 mm 8 m/s 731 mmHg 56%
    17:00 +11°C° 0,1 mm 8 m/s 732 mmHg 55%
    18:00 +10°C° 0 mm 7 m/s 733 mmHg 59%
    19:00 +9°C° 0 mm 6 m/s 733 mmHg 63%
    20:00 +7°C° 0 mm 5 m/s 734 mmHg 67%
    21:00 +7°C° 0 mm 5 m/s 734 mmHg 68%
    22:00 +7°C° 0 mm 5 m/s 734 mmHg 70%
    23:00 +6°C° 0 mm 5 m/s 735 mmHg 71%

    Mâine, 22 Aprilie, Duminică

    Timp Temperatura Precipitaţii Vânt Presiune Umiditate
    00:00 +6°C° 0 mm 5 m/s 735 mmHg 72%
    01:00 +6°C° 0 mm 5 m/s 735 mmHg 72%
    02:00 +5°C° 0 mm 5 m/s 735 mmHg 73%
    03:00 +5°C° 0 mm 5 m/s 736 mmHg 74%
    04:00 +5°C° 0 mm 5 m/s 736 mmHg 76%
    05:00 +5°C° 0 mm 5 m/s 736 mmHg 77%
    06:00 +5°C° 0,1 mm 5 m/s 736 mmHg 76%
    07:00 +5°C° 0,1 mm 5 m/s 736 mmHg 76%
    08:00 +5°C° 0,1 mm 5 m/s 736 mmHg 75%
    09:00 +6°C° 0,2 mm 5 m/s 737 mmHg 74%
    10:00 +6°C° 0,2 mm 5 m/s 737 mmHg 74%
    11:00 +6°C° 0,2 mm 5 m/s 737 mmHg 73%
    12:00 +6°C° 0,1 mm 5 m/s 738 mmHg 71%
    13:00 +7°C° 0,1 mm 5 m/s 738 mmHg 68%
    14:00 +7°C° 0,1 mm 5 m/s 738 mmHg 66%
    15:00 +7°C° 0,1 mm 5 m/s 739 mmHg 65%
    16:00 +7°C° 0,1 mm 5 m/s 739 mmHg 64%
    17:00 +7°C° 0,1 mm 4 m/s 739 mmHg 64%
    18:00 +5°C° 0 mm 3 m/s 740 mmHg 69%
    19:00 +4°C° 0 mm 3 m/s 740 mmHg 74%
    20:00 +4°C° 0 mm 2 m/s 741 mmHg 79%
    21:00 +3°C° 0 mm 2 m/s 741 mmHg 81%
    22:00 +2°C° 0 mm 2 m/s 741 mmHg 83%
    23:00 +2°C° 0 mm 1 m/s 742 mmHg 84%

    Poimâine, 23 Aprilie, Luni

    Timp Temperatura Precipitaţii Vânt Presiune Umiditate
    00:00 +2°C° 0 mm 1 m/s 742 mmHg 85%
    01:00 +1°C° 0 mm 1 m/s 743 mmHg 86%
    02:00 0°C° 0 mm 1 m/s 743 mmHg 86%
    03:00 0°C° 0 mm 1 m/s 743 mmHg 85%
    04:00 0°C° 0 mm 1 m/s 744 mmHg 83%
    05:00 -1°C° 0 mm 1 m/s 744 mmHg 82%
    06:00 -1°C° 0 mm 2 m/s 744 mmHg 71%
    07:00 +1°C° 0 mm 2 m/s 745 mmHg 61%
    08:00 +3°C° 0 mm 2 m/s 745 mmHg 50%
    09:00 +5°C° 0 mm 2 m/s 745 mmHg 45%
    10:00 +6°C° 0 mm 2 m/s 745 mmHg 39%
    11:00 +9°C° 0 mm 1 m/s 745 mmHg 34%
    12:00 +9°C° 0 mm 1 m/s 745 mmHg 33%
    13:00 +10°C° 0 mm 1 m/s 745 mmHg 31%
    14:00 +11°C° 0 mm 1 m/s 745 mmHg 30%
    15:00 +11°C° 0 mm 1 m/s 745 mmHg 31%
    16:00 +10°C° 0 mm 1 m/s 744 mmHg 31%
    17:00 +10°C° 0 mm 1 m/s 744 mmHg 32%
    18:00 +8°C° 0 mm 1 m/s 744 mmHg 38%
    19:00 +5°C° 0 mm 0 m/s 744 mmHg 43%
    20:00 +3°C° 0 mm 0 m/s 744 mmHg 48%
    21:00 +4°C° 0 mm 1 m/s 744 mmHg 51%
    22:00 +4°C° 0 mm 1 m/s 744 mmHg 53%
    23:00 +3°C° 0 mm 1 m/s 743 mmHg 55%

    24 Aprilie, Marţi

    Timp Temperatura Precipitaţii Vânt Presiune Umiditate
    00:00 +2°C° 0 mm 2 m/s 743 mmHg 56%
    01:00 +2°C° 0 mm 2 m/s 743 mmHg 57%
    02:00 +2°C° 0 mm 2 m/s 743 mmHg 58%
    03:00 +2°C° 0 mm 2 m/s 742 mmHg 59%
    04:00 +3°C° 0 mm 2 m/s 742 mmHg 60%
    05:00 +2°C° 0 mm 3 m/s 742 mmHg 61%
    06:00 +3°C° 0,2 mm 3 m/s 741 mmHg 63%
    07:00 +3°C° 0,2 mm 3 m/s 741 mmHg 65%
    08:00 +4°C° 0,2 mm 3 m/s 740 mmHg 67%
    09:00 +5°C° 0,2 mm 4 m/s 740 mmHg 69%
    10:00 +5°C° 0,2 mm 4 m/s 740 mmHg 72%
    11:00 +6°C° 0,2 mm 4 m/s 740 mmHg 75%
    12:00 +6°C° 0,2 mm 4 m/s 740 mmHg 77%
    13:00 +6°C° 0,2 mm 4 m/s 740 mmHg 79%
    14:00 +6°C° 0,2 mm 4 m/s 739 mmHg 82%
    15:00 +7°C° 0,2 mm 3 m/s 739 mmHg 84%
    16:00 +7°C° 0,2 mm 3 m/s 739 mmHg 86%
    17:00 +7°C° 0,2 mm 3 m/s 738 mmHg 88%
    18:00 +7°C° 0,1 mm 3 m/s 738 mmHg 90%
    19:00 +7°C° 0,1 mm 3 m/s 738 mmHg 92%
    20:00 +6°C° 0,1 mm 2 m/s 738 mmHg 94%
    21:00 +6°C° 0,1 mm 2 m/s 738 mmHg 94%
    22:00 +6°C° 0,1 mm 2 m/s 738 mmHg 94%
    23:00 +6°C° 0,1 mm 2 m/s 738 mmHg 94%

    25 Aprilie, Miercuri

    Timp Temperatura Precipitaţii Vânt Presiune Umiditate
    00:00 +6°C° 0 mm 2 m/s 738 mmHg 95%
    01:00 +5°C° 0 mm 2 m/s 737 mmHg 95%
    02:00 +4°C° 0 mm 2 m/s 737 mmHg 95%
    03:00 +4°C° 0 mm 2 m/s 737 mmHg 96%
    04:00 +4°C° 0 mm 2 m/s 737 mmHg 96%
    05:00 +3°C° 0 mm 2 m/s 737 mmHg 96%
    06:00 +3°C° 0,1 mm 3 m/s 737 mmHg 93%
    07:00 +5°C° 0,1 mm 4 m/s 736 mmHg 90%
    08:00 +6°C° 0,1 mm 4 m/s 736 mmHg 88%
    09:00 +7°C° 0,2 mm 5 m/s 736 mmHg 84%
    10:00 +8°C° 0,2 mm 5 m/s 736 mmHg 81%
    11:00 +8°C° 0,2 mm 5 m/s 736 mmHg 77%
    12:00 +9°C° 0,3 mm 5 m/s 736 mmHg 71%
    13:00 +10°C° 0,3 mm 6 m/s 735 mmHg 64%
    14:00 +11°C° 0,3 mm 6 m/s 735 mmHg 57%
    15:00 +10°C° 0,3 mm 5 m/s 735 mmHg 62%
    16:00 +10°C° 0,3 mm 5 m/s 735 mmHg 67%
    17:00 +10°C° 0,3 mm 4 m/s 735 mmHg 71%
    18:00 +9°C° 0,3 mm 3 m/s 735 mmHg 78%
    19:00 +8°C° 0,3 mm 3 m/s 735 mmHg 84%
    20:00 +7°C° 0,3 mm 2 m/s 735 mmHg 90%
    21:00 +6°C° 0,1 mm 2 m/s 735 mmHg 91%
    22:00 +6°C° 0,1 mm 2 m/s 735 mmHg 91%
    23:00 +4°C° 0,1 mm 3 m/s 735 mmHg 91%

    26 Aprilie, Joi

    Timp Temperatura Precipitaţii Vânt Presiune Umiditate
    00:00 +4°C° 0 mm 3 m/s 735 mmHg 92%
    01:00 +3°C° 0 mm 3 m/s 735 mmHg 93%
    02:00 +3°C° 0 mm 3 m/s 736 mmHg 93%
    03:00 +3°C° 0 mm 2 m/s 736 mmHg 94%
    04:00 +3°C° 0 mm 2 m/s 736 mmHg 95%
    05:00 +3°C° 0 mm 2 m/s 736 mmHg 96%
    06:00 +3°C° 0 mm 3 m/s 736 mmHg 91%
    07:00 +5°C° 0 mm 3 m/s 736 mmHg 85%
    08:00 +7°C° 0 mm 3 m/s 736 mmHg 80%
    09:00 +7°C° 0,1 mm 4 m/s 736 mmHg 73%
    10:00 +10°C° 0,1 mm 4 m/s 736 mmHg 66%
    11:00 +11°C° 0,1 mm 4 m/s 736 mmHg 59%
    12:00 +11°C° 0,3 mm 4 m/s 736 mmHg 57%
    13:00 +12°C° 0,3 mm 4 m/s 736 mmHg 56%
    14:00 +12°C° 0,3 mm 5 m/s 737 mmHg 54%
    15:00 +12°C° 0,3 mm 4 m/s 737 mmHg 57%
    16:00 +11°C° 0,3 mm 4 m/s 737 mmHg 60%
    17:00 +11°C° 0,3 mm 4 m/s 738 mmHg 62%
    18:00 +10°C° 0,2 mm 3 m/s 738 mmHg 69%
    19:00 +9°C° 0,2 mm 3 m/s 739 mmHg 75%
    20:00 +7°C° 0,2 mm 3 m/s 739 mmHg 82%
    21:00 +7°C° 0 mm 3 m/s 740 mmHg 84%
    22:00 +5°C° 0 mm 3 m/s 740 mmHg 86%
    23:00 +6°C° 0 mm 2 m/s 740 mmHg 88%
    Arată mai mult